Regional Weather Roundup
Issued by NWS

Home | Current Version | Previous Version | Graphics & Text | Print | Product List | Glossary On
Versions: 1 2 3 4 5 6 7 8 9 10 11 12 13 14 15 16 17 18 19 20 21 22 23 24 25 26 27 28 29 30 31 32 33 34 35 36 37 38 39 40 41 42 43 44 45 46 47 48 49 50
000
ASUS43 KMPX 232110
RWRMN
WEATHER ROUNDUP FOR MINNESOTA
NATIONAL WEATHER SERVICE TWIN CITIES/CHANHASSEN MN
400 PM CDT SUN JUL 23 2017


NOTE: "FAIR" INDICATES FEW OR NO CLOUDS BELOW 12,000 FEET WITH NO
SIGNIFICANT WEATHER AND/OR OBSTRUCTIONS TO VISIBILITY. N/A MEANS
CURRENT SKY AND/OR WEATHER CONDITIONS ARE NOT AVAILABLE.

MNZ060>063-068>070-232200-
   Twin Cities Metro

CITY           SKY/WX    TMP DP  RH WIND       PRES   REMARKS
TWIN CITIES    PTSUNNY   78  59  51 N15G23    29.94S
ST PAUL        MOSUNNY   73  60  63 N10G21    29.94S
CRYSTAL        PTSUNNY   75  58  55 N8        29.94R
BLAINE         PTSUNNY   77  59  53 N17       29.95S
LAKEVILLE      MOSUNNY   75  61  60 N8        29.95R
EDEN PRAIRIE   MOSUNNY   78  60  53 NW13      29.94R
SOUTH ST PAUL  MOSUNNY   76  59  55 N9        29.94R
LAKE ELMO      FAIR      73  61  64 N14       29.96R
$$
MNZ001>005-007-008-013>017-022>024-027-028-232200-
   Northwest Minnesota

CITY           SKY/WX    TMP DP  RH WIND       PRES   REMARKS
BEMIDJI        PTSUNNY   71  58  62 E7        30.02S
HALLOCK        MOSUNNY   75  63  64 CALM      29.99S
ROSEAU         SUNNY     77  63  61 CALM      30.00F
WARROAD        SUNNY     75  63  64 NE8       30.01F
THIEF RVR FALL MOSUNNY   75  58  55 VRB3      30.02S
CROOKSTON      MOSUNNY   77  61  57 CALM      30.00S
FOSSTON        MOSUNNY   75  63  64 NE5       30.02S
DETROIT LAKES  MOSUNNY   72  59  64 CALM      30.03S
MOORHEAD       SUNNY     75  61  60 NW6       30.01F
PARK RAPIDS    PTSUNNY   75  57  53 N10       30.01S
MAHNOMEN       FAIR      74  60  61 N7        30.02S
$$
MNZ006-009>011-018-025>026-232200-
   North Central Minnesota

CITY           SKY/WX    TMP DP  RH WIND       PRES   REMARKS
BAUDETTE       MOSUNNY   78  58  49 CALM      29.99F
FLAG ISLAND    SUNNY     79  57  47 CALM      30.00F HAZE
INTL FALLS     MOSUNNY   77  52  41 NE6       29.99F
WASKISH        CLOUDY    77  61  57 W7        30.00S
BIG FORK         N/A     75  55  50 CALM      30.01S
LONGVILLE      CLOUDY    70  55  60 NE6       30.02S
GRAND RAPIDS   CLOUDY    69  59  70 VRB5      30.03S
CRANE LAKE     SUNNY     73  52  46 CALM      30.01S
ORR            MOSUNNY   75  50  41 CALM      29.98S
COOK           MOSUNNY   73  54  49 N6        30.00F
WALKER         CLOUDY    70  58  65 E5        30.02S
$$
MNZ012-019>021-037-232200-
   Northeast Minnesota

CITY           SKY/WX    TMP DP  RH WIND       PRES   REMARKS
DULUTH         DRIZZLE   60  60 100 E8        30.02S FOG
ELY            MOSUNNY   73  48  40 N3        30.00S
HIBBING        CLOUDY    69  57  65 NE5       30.01R
EVELETH        MOSUNNY   72  63  73 NE3       30.02S
DULUTH HARBOR  CLOUDY    63  59  88 N6        30.02S
TWO HARBORS      N/A     70  61  73 SE5       29.99S
SILVER BAY     SUNNY     66  57  72 E7        29.99R
GRAND MARAIS     N/A     59  53  80 E9        30.00R
G MARAIS ARPRT SUNNY     70  45  40 NE12G17   30.02R
$$
MNZ029>031-032-039>041-046>048-054>057-064-232200-
   West Central Minnesota

CITY           SKY/WX    TMP DP  RH WIND       PRES   REMARKS
FERGUS FALLS   PTSUNNY   72  61  68 N7        30.00F
WHEATON        PTSUNNY   72  59  64 NE8       30.03S
MORRIS         MOSUNNY   77  57  50 N9        30.00S
ALEXANDRIA     PTSUNNY   75  60  59 NW9       30.02S
ELBOW LAKE     PTSUNNY   71  61  70 N8        30.02S
WADENA         CLOUDY    73  59  60 N3        30.00S
GLENWOOD       MOSUNNY   73 N/A N/A N9          N/A
APPLETON       MOSUNNY   75  57  53 N12       30.00S
BENSON         MOSUNNY   77  61  57 N8        30.01S
ORTONVILLE     CLOUDY    73  57  56 N8        30.01F
MADISON        PTSUNNY   75  59  57 N12       30.01F
WILLMAR        FAIR      75  61  60 NW13      30.00S
$$
MNZ033>034-036-042>043-049>051-058-059-232200-
   Central Minnesota

CITY           SKY/WX    TMP DP  RH WIND       PRES   REMARKS
ST CLOUD       PTSUNNY   75  61  61 NE10      29.97S
SAUK CENTRE    CLOUDY    73  59  59 N8        29.99F
PAYNESVILLE    PTSUNNY   78  58  50 NW9       29.99S
AITKIN         PTSUNNY   70  57  64 N5        29.99S
PINE RIVER     PTSUNNY   72  61  68 N7        30.04S
BRAINERD       CLOUDY    71  59  65 NE7       30.00S
STAPLES        PTSUNNY   73  57  56 NE7       30.00S
LONG PRAIRIE   CLOUDY    73  57  56 NW7       30.01S
LITTLE FALLS   PTSUNNY   72  55  56 N3        30.00R
LITCHFIELD     SUNNY     79  61  53 N8        29.98S
BUFFALO        PTSUNNY   76  59  54 N7        29.97S
MAPLE LAKE     PTSUNNY   78  63  58 N9        29.98R
HUTCHINSON     MOSUNNY   76  61  58 NW9       29.98S
$$
MNZ037-044-045-052-053-232200-
   East Central Minnesota

CITY           SKY/WX    TMP DP  RH WIND       PRES   REMARKS
PRINCETON      MOSUNNY   79  59  50 N9        29.98R
MORA           PTSUNNY   70  59  68 NE5       30.00R
CAMBRIDGE      PTSUNNY   75  59  57 N8        29.96R
RUSH CITY      SUNNY     73  59  61 NE8       29.98S
MOOSE LAKE     PTSUNNY   68  59  73 CALM      29.99R
HINCKLEY       CLOUDY    72  61  68 NE9       29.99R
CLOQUET        CLOUDY    66  57  72 E5        30.01S
MCGREGOR       CLOUDY    70  59  68 N8        30.00F
$$
MNZ071>073-080-081-089-090-097-098-232200-
   Southwest Minnesota

CITY           SKY/WX    TMP DP  RH WIND       PRES   REMARKS
MONTEVIDEO     PTSUNNY   79  63  57 N8        30.00F
GRANITE FALLS  PTSUNNY   76  60  58 NW9       30.01S
CANBY          PTSUNNY   77  57  49 N9        30.03S
MARSHALL       PTSUNNY   72  60  66 N12       30.01S
REDWOOD FALLS  MOSUNNY   77  58  51 N8G16     29.98S
OLIVIA         PTSUNNY   73  59  60 N8        29.98S
PIPESTONE      SUNNY     77  57  50 NE10G18   30.01S
WINDOM         SUNNY     75  57  53 N14       29.99F
JACKSON        PTSUNNY   72  59  64 NW15      30.00S
SLAYTON        HVY RAIN  73  58  61 N13G20    30.02F
$$
MNZ065>067-074>077-082>085-091>093-232200-
   South Central Minnesota

CITY           SKY/WX    TMP DP  RH WIND       PRES   REMARKS
MANKATO        CLOUDY    74  60  61 N14       29.96S
NEW ULM        CLOUDY    73  57  56 N8        29.97S
ST JAMES       PTSUNNY   75  63  64 NW9       29.98S
FAIRMONT       CLOUDY    74  61  63 N13       29.97S
GLENCOE        PTSUNNY   76  64  65 N9        29.96S
FARIBAULT      PTSUNNY   75  61  60 NW8       29.95S
OWATONNA       PTSUNNY   75  61  60 N9        29.95R
WASECA         PTSUNNY   73  61  64 NW13G18   29.96S
ALBERT LEA     MOSUNNY   73  57  56 NW15      29.95S
$$
MNZ078>079-086>088-094>096-232200-
   Southeast Minnesota

CITY           SKY/WX    TMP DP  RH WIND       PRES   REMARKS
ROCHESTER      PTSUNNY   74  61  63 N13G20    29.94S
RED WING       PTSUNNY   75  57  53 N8        29.91S
STANTON        MOSUNNY   76  60  57 N9        29.93S
DODGE CENTER   PTSUNNY   73  61  64 N13       29.94S
WINONA         MOSUNNY   77  61  57 NW14      29.90R
AUSTIN         CLOUDY    73  61  64 N12G20    29.94R
PRESTON        PTSUNNY   74  60  62 N16       29.92F
$$
ABBREVIATIONS USED IN REMARKS
   TC - TEMPERATURES IN CELSIUS
  WCI - WIND CHILL INDEX
   HX - HEAT INDEX
  VSB - VISIBILITY
$$




USA.gov is the U.S. government's official web portal to all federal, state and local government web resources and services.